Location: Hamburg
(53.5554°N, 9.9941°E)
Time: 19:39:05
(UTC+01:00)

ISS - Pass Details

Date: 12 February 2018
Orbit: 402 x 407 km, 51.6° (Epoch: 24 February)

Event Time Altitude Azimuth Distance (km) Brightness Sun altitude
Rises 18:31:27 0° 276° (W) 2,321 1.8 -10.4°
Reaches altitude 10° 18:34:20 10° 248° (WSW) 1,458 0.4 -10.9°
Maximum altitude 18:35:59 13° 218° (SW) 1,273 -0.6 -11.1°
Drops below altitude 10° 18:37:38 10° 187° (S) 1,454 -0.8 -11.3°
Sets 18:40:30 0° 159° (SSE) 2,310 -0.1 -11.8°
